Date,TemperatureHighF,TemperatureAvgF,TemperatureLowF,DewpointHighF,DewpointAvgF,DewpointLowF,HumidityHigh,HumidityAvg,HumidityLow,PressureMaxIn,PressureMinIn,WindSpeedMaxMPH,WindSpeedAvgMPH,GustSpeedMaxMPH,PrecipitationSumIn
2018-1-1,46.9,44.1,41.2,43.7,41.0,39.2,95,88,80,30.02,29.61,30,11,44,0.80
2018-1-2,53.1,45.9,38.8,52.0,42.6,36.9,98,93,84,30.15,29.92,20,6,24,0.08
2018-1-3,56.7,51.8,46.8,54.5,46.8,41.9,96,86,72,29.97,29.68,33,14,43,0.42
2018-1-4,55.6,51.4,47.3,53.6,51.1,45.7,98,94,87,29.88,29.70,31,12,39,0.55
2018-1-5,50.5,48.5,46.6,49.6,46.8,45.3,97,94,90,29.78,29.60,13,5,22,0.24
2018-1-6,46.2,44.5,42.8,45.1,42.7,41.4,97,95,93,29.80,29.65,11,2,16,0.41
2018-1-7,48.0,45.6,43.2,45.5,43.8,41.9,97,93,90,29.99,29.78,26,9,26,0.06
2018-1-8,47.5,44.2,41.0,43.9,41.8,39.2,94,91,86,29.99,29.87,13,4,18,0.00
2018-1-9,42.1,40.9,39.7,40.6,39.5,38.5,96,95,94,29.89,29.85,5,1,7,0.00
2018-1-10,46.9,43.7,41.2,45.1,42.0,38.5,96,93,88,29.85,29.80,6,2,13,0.26
2018-1-11,46.6,42.7,38.7,43.5,41.1,37.6,97,95,87,30.17,29.83,4,1,7,0.14
2018-1-12,44.4,41.6,38.7,42.1,40.9,37.9,97,94,89,30.29,30.17,5,2,9,0.06
2018-1-13,41.7,37.4,33.1,38.5,35.1,32.4,98,95,88,30.25,30.00,3,1,7,0.02
2018-1-14,50.4,42.5,34.5,43.2,37.4,32.9,94,89,75,30.13,29.99,3,0,6,0.00
2018-1-15,48.0,44.0,40.1,46.6,41.6,37.6,96,91,85,30.13,29.76,23,10,26,0.36
2018-1-16,52.3,48.9,45.5,47.3,45.2,40.3,95,88,75,29.78,29.69,21,12,31,0.35
2018-1-17,45.5,41.5,37.6,40.1,35.9,34.0,89,80,67,30.11,29.70,22,11,31,0.08
2018-1-18,51.3,46.4,41.5,50.0,45.3,38.3,97,94,85,30.10,29.83,22,12,32,0.37
2018-1-19,48.4,42.7,37.0,44.6,38.4,34.3,95,89,80,30.07,29.91,15,5,25,0.09
2018-1-20,54.7,45.2,35.8,51.4,42.8,34.0,98,93,83,30.07,29.60,25,9,35,0.77
2018-1-21,51.6,47.9,44.2,50.5,45.5,42.8,98,92,81,30.09,29.81,17,6,28,0.08
2018-1-22,55.8,51.1,46.4,51.3,49.0,42.6,97,93,78,30.29,29.93,24,10,33,0.31
2018-1-23,50.2,47.2,44.1,49.5,45.4,42.3,98,94,86,30.36,30.28,13,5,16,0.01
2018-1-24,54.5,50.3,46.4,48.6,46.8,44.8,96,89,78,30.34,30.08,17,6,19,0.00
2018-1-25,50.5,46.5,42.6,46.9,45.0,41.9,97,94,86,30.09,29.91,12,2,16,1.17
2018-1-26,46.0,42.0,38.1,42.3,40.6,35.8,97,92,82,30.32,29.99,7,2,10,0.02
2018-1-27,38.3,34.3,30.6,37.2,34.8,29.5,98,97,93,30.63,30.32,6,1,8,0.01
2018-1-28,45.0,38.4,31.8,44.4,38.4,31.3,98,98,97,30.71,30.63,10,3,11,0.00
2018-1-29,48.6,46.7,44.8,46.9,45.3,44.2,98,97,91,30.67,30.52,9,2,11,0.06
2018-1-30,49.6,47.3,45.0,47.5,45.8,44.4,98,95,90,30.53,30.32,9,2,11,0.00
2018-1-31,47.3,44.0,40.8,45.1,42.3,38.5,95,90,84,30.31,29.78,24,9,30,0.62
2018-2-1,41.9,37.4,32.9,39.4,35.7,31.6,96,91,78,29.81,29.73,12,4,15,0.07
2018-2-2,41.5,34.3,27.1,37.6,32.3,26.4,98,93,72,29.89,29.81,9,2,13,0.02
2018-2-3,39.9,36.7,33.4,36.9,35.0,32.2,96,93,85,29.88,29.72,11,2,13,0.02
2018-2-4,37.8,34.3,30.9,36.3,34.1,28.8,96,94,90,30.11,29.75,19,4,22,0.13
2018-2-5,32.5,30.2,27.9,31.6,28.2,24.8,97,91,80,30.11,29.92,19,4,22,0.00
2018-2-6,32.5,31.1,29.8,31.6,31.0,28.4,98,97,94,29.92,29.81,10,2,12,0.00
2018-2-7,32.2,30.0,27.9,29.8,28.3,25.9,96,94,89,30.10,29.87,6,1,8,0.00
2018-2-8,31.6,28.5,25.3,28.8,26.9,23.7,94,91,87,30.17,30.10,8,1,9,0.00
2018-2-9,33.6,29.9,26.2,31.8,28.6,24.4,97,92,86,30.12,29.95,13,3,13,0.00
2018-2-10,38.3,32.0,25.9,34.0,29.9,24.4,95,90,78,30.19,30.01,11,3,13,0.24
2018-2-11,47.1,39.9,32.7,42.1,35.9,31.1,98,89,62,30.01,29.80,16,5,23,0.19
2018-2-12,41.4,34.7,28.0,32.9,29.3,26.1,93,82,59,30.15,29.97,12,2,14,0.00
2018-2-13,36.5,30.0,23.4,31.8,27.5,22.1,97,90,66,30.10,29.73,13,2,19,0.00
2018-2-14,42.4,37.3,32.2,37.2,34.0,31.5,97,88,72,29.98,29.82,12,2,13,0.18
2018-2-15,55.0,46.8,38.5,53.4,47.3,36.3,98,96,91,30.17,29.87,18,4,21,0.25
2018-2-16,48.4,44.5,40.6,46.8,41.4,39.0,96,87,75,30.33,30.10,13,4,17,0.01
2018-2-17,44.1,40.5,37.0,41.0,39.8,35.8,97,94,87,30.29,29.98,12,3,13,0.75
2018-2-18,39.6,35.1,30.6,39.0,34.6,29.8,98,97,94,30.30,30.17,4,0,8,0.01
2018-2-19,43.2,35.9,28.6,38.5,33.5,27.9,98,92,77,30.17,29.99,3,0,6,0.08
2018-2-20,43.3,39.7,36.1,38.8,36.8,31.5,98,91,75,30.05,29.93,10,3,14,0.09
2018-2-21,40.8,35.8,30.9,31.8,29.3,26.1,92,80,62,30.10,30.03,19,7,26,0.00
2018-2-22,38.8,33.3,27.9,29.1,25.6,21.6,89,74,58,30.03,29.91,24,9,29,0.00
2018-2-23,34.9,31.9,28.8,27.0,24.0,21.6,78,71,63,29.93,29.89,16,6,21,0.00
2018-2-24,38.8,33.6,28.4,29.1,26.1,21.7,84,74,64,29.96,29.88,16,5,19,0.00
2018-2-25,36.7,31.9,27.1,21.6,17.4,10.2,72,57,42,30.12,29.96,23,10,29,0.00
2018-2-26,29.3,25.8,22.3,11.1,9.0,6.3,59,49,39,30.12,30.07,27,11,30,0.01
2018-2-27,27.7,22.4,17.1,11.5,10.0,7.9,71,60,45,30.09,29.96,20,7,25,0.00
2018-2-28,32.2,22.3,12.4,25.9,14.2,7.2,92,71,47,29.96,29.47,17,5,20,0.00
2018-3-1,50.0,39.0,27.9,40.6,34.1,25.9,97,86,69,29.47,29.13,11,3,14,0.09
2018-3-2,48.7,41.5,34.5,41.7,36.5,29.1,96,79,58,29.39,29.11,23,5,31,0.28
2018-3-3,55.0,45.0,35.1,45.5,37.4,29.1,96,82,61,29.47,29.24,20,3,30,0.06
2018-3-4,46.9,43.0,39.0,44.6,40.1,36.1,93,89,85,29.47,29.31,20,2,24,0.21
2018-3-5,57.0,45.4,34.0,44.6,40.2,32.5,96,82,58,29.47,29.22,11,1,12,0.07
2018-3-6,52.0,46.7,41.4,44.1,41.6,39.7,95,88,67,29.34,29.28,18,4,24,0.12
2018-3-7,48.4,44.1,39.7,42.4,39.0,35.8,93,86,72,29.75,29.31,19,7,28,0.11
2018-3-8,56.1,45.6,35.1,41.4,36.6,33.4,95,75,48,29.77,29.66,19,4,23,0.00
2018-3-9,62.1,52.3,42.6,50.2,44.0,36.9,84,74,61,29.77,29.65,11,2,15,0.00
2018-3-10,65.1,57.3,49.5,55.8,50.8,45.9,96,85,63,29.65,29.48,16,2,20,0.43
2018-3-11,64.0,55.8,47.7,54.3,48.3,43.7,98,81,51,29.48,29.29,16,2,18,0.14
2018-3-12,54.0,49.1,44.4,46.6,44.3,40.6,94,84,73,29.70,29.36,24,10,31,0.30
2018-3-13,52.0,44.8,37.6,46.0,42.8,36.7,97,90,70,29.96,29.70,24,6,25,0.36
2018-3-14,58.3,45.6,32.9,43.3,37.9,32.2,97,76,49,29.96,29.40,13,3,16,0.01
2018-3-15,54.1,49.7,45.3,47.7,44.3,38.8,96,87,63,29.50,29.30,20,4,31,1.08
2018-3-16,52.9,48.2,43.5,44.8,43.2,41.5,96,88,69,29.65,29.50,11,3,13,0.10
2018-3-17,52.0,45.2,38.7,42.8,39.8,36.5,94,86,64,29.60,29.39,11,2,14,0.24
2018-3-18,39.6,35.6,31.6,37.8,30.3,27.3,94,88,81,29.72,29.45,12,4,16,0.00
2018-3-19,39.2,34.8,30.4,34.3,30.3,27.5,94,87,79,29.85,29.68,23,5,25,0.02
2018-3-20,42.4,35.7,29.1,32.7,27.2,18.0,87,73,44,30.29,29.85,24,9,32,0.00
2018-3-21,44.8,37.7,30.6,30.6,27.6,23.9,88,69,46,30.40,30.29,22,7,23,0.00
2018-3-22,43.5,37.3,31.3,34.9,31.2,25.9,86,76,66,30.36,30.05,14,4,17,0.00
2018-3-23,44.4,40.9,37.4,38.7,34.8,31.5,86,79,70,30.05,29.52,12,3,14,0.00
2018-3-24,56.5,47.5,38.5,43.7,39.6,34.9,87,75,59,29.60,29.41,12,2,13,0.00
2018-3-25,59.7,50.6,41.7,44.4,41.4,38.5,92,72,48,29.88,29.61,10,1,11,0.00
2018-3-26,53.8,47.8,41.9,44.4,41.9,37.0,94,78,59,30.11,29.88,14,3,16,0.06
2018-3-27,54.3,47.0,39.7,52.0,43.4,36.5,97,92,83,30.11,29.86,14,5,20,0.16
2018-3-28,53.1,48.5,43.9,51.3,47.8,39.9,97,92,83,29.93,29.70,24,8,26,0.39
2018-3-29,53.2,45.1,37.0,41.4,38.3,35.2,95,78,54,29.82,29.67,18,4,19,0.00
2018-3-30,51.1,44.2,37.2,44.6,38.0,33.8,94,81,60,29.67,29.45,27,4,27,0.22
2018-3-31,49.5,41.0,32.7,42.6,37.6,30.7,96,86,70,29.79,29.47,16,3,23,0.09
2018-4-1,52.2,45.7,39.4,39.2,37.1,32.5,93,76,52,30.01,29.79,14,5,18,0.01
2018-4-2,62.8,51.7,40.5,49.6,40.8,34.0,80,70,54,29.93,29.57,7,1,10,0.00
2018-4-3,61.2,53.6,45.9,51.6,44.5,38.8,96,79,64,29.66,29.56,29,2,38,0.28
2018-4-4,57.0,51.8,46.6,48.9,47.2,43.5,96,87,67,29.79,29.59,26,8,33,0.70
2018-4-5,55.8,49.5,43.2,46.4,41.3,36.3,94,77,54,30.12,29.79,17,4,20,0.08
2018-4-6,68.7,52.8,36.9,49.6,42.1,33.8,91,68,40,30.10,29.77,12,2,14,0.00
2018-4-7,70.5,59.9,49.3,47.8,42.3,39.2,71,58,39,29.84,29.75,8,2,11,0.00
2018-4-8,57.7,54.8,51.8,53.1,50.3,48.2,90,83,77,29.77,29.72,15,2,21,0.09
2018-4-9,57.9,53.7,49.5,53.6,49.9,47.5,96,91,82,29.78,29.59,13,2,14,0.62
2018-4-10,57.0,52.0,47.1,49.1,45.2,41.5,96,80,61,29.61,29.47,12,2,16,0.01
2018-4-11,64.2,54.8,45.3,46.6,42.1,39.7,82,66,42,29.66,29.53,18,3,21,0.00
2018-4-12,57.6,51.1,44.6,48.0,45.1,42.3,94,80,65,29.61,29.49,12,3,17,0.06
2018-4-13,62.1,50.4,38.7,50.5,44.6,37.6,97,82,59,29.95,29.61,11,1,14,0.00
2018-4-14,59.5,54.7,49.8,52.2,48.5,44.6,94,83,71,30.08,29.95,14,1,15,0.13
2018-4-15,65.5,52.7,39.9,53.1,47.2,38.8,98,80,52,30.05,29.87,10,2,13,0.01
2018-4-16,61.3,51.3,41.4,49.1,45.0,40.1,96,78,57,30.17,29.95,7,1,10,0.00
2018-4-17,73.4,56.4,39.4,50.0,44.6,37.9,96,70,41,30.34,30.17,5,0,6,0.00
2018-4-18,78.1,64.8,51.6,55.4,47.8,41.0,79,58,27,30.37,30.24,15,3,18,0.00
2018-4-19,81.7,66.4,51.1,58.8,51.9,46.8,88,63,35,30.32,30.23,6,1,8,0.00
2018-4-20,82.4,67.3,52.5,61.5,53.4,48.2,86,61,37,30.26,30.15,8,2,12,0.00
2018-4-21,83.8,70.2,56.7,61.2,54.5,49.8,79,59,36,30.17,30.00,5,1,8,0.00
2018-4-22,75.7,64.0,52.3,61.0,54.4,49.5,91,70,46,30.01,29.95,14,2,14,0.00
2018-4-23,67.8,61.2,54.7,57.7,55.1,51.4,94,83,64,30.15,30.01,8,2,10,0.11
2018-4-24,70.3,60.4,50.5,56.3,52.6,48.2,94,76,56,30.16,30.00,13,2,15,0.00
2018-4-25,59.5,54.1,48.7,55.4,50.9,47.1,96,91,84,30.14,29.99,14,3,19,0.13
2018-4-26,61.0,51.5,42.3,46.9,43.0,39.4,96,76,51,30.22,30.07,9,1,12,0.01
2018-4-27,63.5,51.0,38.5,49.3,43.3,36.7,95,73,52,30.07,29.82,22,5,26,0.00
2018-4-28,52.3,45.5,38.7,47.1,43.1,36.5,95,87,72,29.96,29.80,7,1,11,0.15
2018-4-29,56.1,51.6,47.1,52.3,48.6,45.7,97,95,84,29.81,29.50,20,3,23,1.08
2018-4-30,48.9,45.4,41.9,47.5,43.7,39.0,96,91,85,29.95,29.59,24,8,27,0.13
2018-5-1,55.2,44.7,34.2,43.7,39.4,32.9,97,81,59,30.00,29.94,10,1,10,0.00
2018-5-2,60.4,47.6,34.7,45.9,39.4,33.4,97,74,41,29.96,29.88,12,2,15,0.00
2018-5-3,59.5,51.2,43.0,47.3,44.0,40.8,95,76,56,30.10,29.95,17,4,19,0.00
2018-5-4,66.6,55.9,45.3,50.7,44.6,39.6,81,66,54,30.11,30.05,23,7,27,0.00
2018-5-5,72.9,62.2,51.6,58.8,51.5,43.7,79,69,59,30.11,30.06,20,6,20,0.00
2018-5-6,79.3,67.8,56.3,62.8,57.9,52.7,88,71,51,30.11,30.02,7,2,10,0.00
2018-5-7,78.1,68.1,58.6,59.5,56.5,51.6,86,67,41,30.04,29.90,10,2,12,0.00
2018-5-8,78.3,65.2,52.2,58.6,52.7,47.8,88,61,37,29.90,29.77,8,2,11,0.00
2018-5-9,68.9,60.7,52.5,59.0,54.4,49.3,90,79,66,29.86,29.78,13,4,15,0.00
2018-5-10,63.5,56.7,50.0,54.3,47.5,40.5,87,73,48,30.16,29.84,11,3,18,0.00
2018-5-11,72.0,57.5,43.0,53.4,45.6,39.0,87,66,41,30.15,29.97,9,1,12,0.00
2018-5-12,68.4,57.8,47.1,58.6,51.2,45.0,93,81,68,30.01,29.85,19,2,29,0.13
2018-5-13,55.4,50.8,46.2,45.7,44.0,40.1,95,81,62,30.03,29.97,11,3,15,0.36
2018-5-14,52.9,49.1,45.3,51.8,47.9,43.7,96,95,92,30.01,29.91,19,4,21,1.05
2018-5-15,58.5,55.7,52.9,54.9,52.7,51.6,97,95,86,30.06,29.96,8,2,10,0.02
2018-5-16,70.3,61.0,51.8,59.2,54.5,50.9,98,84,60,30.09,30.02,13,2,17,0.00
2018-5-17,63.7,58.0,52.3,56.5,52.3,49.5,95,87,75,30.17,30.09,15,4,19,0.00
2018-5-18,67.1,56.4,45.7,53.8,48.3,43.2,91,74,54,30.16,30.11,13,4,15,0.00
2018-5-19,68.4,57.2,46.0,52.9,47.3,42.3,88,70,51,30.15,30.08,15,4,15,0.00
2018-5-20,72.3,60.1,47.8,55.9,50.5,45.0,91,71,50,30.12,29.96,13,4,17,0.00
2018-5-21,74.3,61.8,49.6,58.6,53.8,47.3,92,77,52,29.98,29.85,11,2,20,0.13
2018-5-22,72.0,60.7,49.3,61.3,55.1,48.2,97,85,62,30.01,29.89,8,1,11,0.17
2018-5-23,73.2,62.2,51.3,61.7,55.9,50.0,96,84,57,30.08,30.00,7,1,10,0.13
2018-5-24,80.4,65.0,49.6,61.9,55.2,48.6,97,73,38,30.08,29.99,6,1,8,0.01
2018-5-25,81.9,69.0,56.1,64.6,59.3,52.9,93,73,50,30.03,29.93,8,1,10,0.05
2018-5-26,80.1,69.8,59.4,64.0,60.5,57.2,94,74,52,30.01,29.94,12,2,14,0.00
2018-5-27,76.8,67.8,58.8,64.2,60.2,56.1,92,77,57,30.05,29.98,13,1,16,0.00
2018-5-28,73.8,66.1,58.6,64.6,60.4,56.8,94,85,68,30.05,29.97,12,1,13,0.00
2018-5-29,73.8,64.9,56.1,64.0,59.1,54.5,96,88,67,29.99,29.90,11,1,17,0.15
2018-5-30,76.8,66.3,55.8,66.0,60.0,54.9,98,87,58,29.98,29.90,10,1,16,0.17
2018-5-31,73.6,65.2,56.8,62.8,58.8,55.9,98,89,62,30.10,29.93,13,2,18,0.11
2018-6-1,68.4,62.8,57.2,59.7,58.4,54.9,97,87,68,30.18,30.09,8,2,10,0.10
2018-6-2,76.6,64.1,51.6,61.9,57.6,50.7,97,78,54,30.17,30.05,5,1,8,0.00
2018-6-3,78.4,68.4,58.5,63.9,60.1,55.9,95,80,55,30.08,29.93,11,3,17,0.46
2018-6-4,79.2,68.4,57.6,65.7,61.5,56.7,97,82,54,29.95,29.82,5,1,6,0.01
2018-6-5,73.0,67.2,61.5,67.3,63.3,59.7,96,89,75,29.88,29.81,8,1,11,0.30
2018-6-6,74.3,67.4,60.4,65.7,62.1,58.8,97,90,72,29.98,29.81,12,2,17,0.51
2018-6-7,76.3,66.7,57.0,65.3,60.8,56.1,98,88,62,30.04,29.97,10,2,14,0.09
2018-6-8,79.0,69.6,60.1,64.6,61.8,59.0,97,78,55,30.01,29.89,8,2,10,0.00
2018-6-9,83.7,73.1,62.6,68.0,64.2,60.8,95,78,50,29.93,29.85,16,2,23,0.00
2018-6-10,78.6,68.7,58.8,67.8,63.5,57.7,97,86,63,29.92,29.85,8,1,10,0.10
2018-6-11,74.1,68.6,63.1,66.9,63.1,59.2,98,88,67,29.87,29.77,11,2,25,0.09
2018-6-12,72.3,63.3,54.3,60.8,57.1,53.1,97,81,61,29.96,29.84,15,4,19,0.00
2018-6-13,64.4,58.9,53.6,56.3,53.0,48.7,93,81,57,30.10,29.95,15,4,19,0.00
2018-6-14,70.7,60.1,49.5,58.3,53.4,47.8,95,77,55,30.10,30.03,9,1,11,0.00
2018-6-15,72.0,65.7,59.4,62.4,59.6,56.3,96,85,68,30.08,30.04,15,1,16,0.06
2018-6-16,73.8,67.5,61.2,61.3,59.2,55.8,95,77,58,30.10,30.03,10,2,15,0.00
2018-6-17,70.0,62.6,55.2,57.2,54.3,51.3,89,73,53,30.22,30.10,13,3,16,0.00
2018-6-18,74.8,64.4,54.0,61.5,57.4,51.1,93,81,59,30.28,30.21,9,2,12,0.00
2018-6-19,79.0,68.9,58.8,65.5,60.8,55.9,94,76,59,30.32,30.22,11,3,14,0.00
2018-6-20,85.3,72.4,59.5,65.5,59.3,52.2,94,66,34,30.23,30.10,12,3,15,0.00
2018-6-21,76.3,67.1,58.3,63.3,57.6,45.7,86,69,52,30.28,30.09,20,5,22,0.00
2018-6-22,68.7,58.2,47.8,47.8,44.7,42.1,81,60,45,30.35,30.28,25,8,27,0.00
2018-6-23,71.8,59.7,47.8,50.7,47.0,42.8,84,61,42,30.34,30.24,15,5,20,0.00
2018-6-24,73.0,64.0,54.9,52.9,50.1,46.4,85,62,42,30.24,30.15,15,4,18,0.00
2018-6-25,75.9,64.6,53.6,55.6,52.0,46.6,83,63,46,30.22,30.17,23,6,23,0.00
2018-6-26,82.0,69.9,57.9,60.4,55.9,52.7,83,61,43,30.22,30.14,15,6,20,0.00
2018-6-27,84.2,72.1,60.1,58.5,54.6,50.4,72,53,37,30.16,30.04,18,6,23,0.00
2018-6-28,81.3,70.8,60.3,56.7,53.0,46.8,74,52,31,30.09,29.95,24,7,26,0.00
2018-6-29,82.6,73.6,64.6,60.8,56.8,53.1,74,57,43,30.01,29.89,21,6,25,0.00
2018-6-30,91.2,77.1,63.1,63.1,60.1,57.6,86,58,33,29.91,29.80,10,2,12,0.00
2018-7-1,94.5,80.4,66.6,66.0,62.9,59.5,80,56,35,29.84,29.77,10,2,13,0.00
2018-7-2,79.0,71.9,64.9,70.0,64.0,55.9,94,78,54,29.99,29.80,26,3,29,0.29
2018-7-3,84.0,73.4,62.8,66.7,63.2,57.9,96,71,48,30.04,29.98,11,2,14,0.00
2018-7-4,85.6,73.4,61.3,65.3,61.9,59.0,94,71,43,30.04,29.91,19,2,25,1.02
2018-7-5,68.4,64.6,60.8,62.2,60.7,59.7,97,91,79,30.11,29.97,15,4,22,1.11
2018-7-6,80.4,72.1,63.7,64.4,61.5,57.4,94,75,47,30.21,30.11,8,2,12,0.00
2018-7-7,84.6,73.4,62.4,62.2,59.2,56.5,87,61,40,30.22,30.16,14,3,19,0.00
2018-7-8,83.1,73.6,64.2,60.8,58.4,55.9,75,58,43,30.24,30.16,16,4,21,0.00
2018-7-9,80.6,71.3,62.1,59.5,56.5,53.1,79,59,40,30.20,30.12,17,4,21,0.00
2018-7-10,76.3,68.4,60.4,60.8,55.8,48.6,80,64,47,30.15,30.06,16,4,20,0.00
2018-7-11,72.9,62.8,52.7,55.6,51.7,48.0,88,69,50,30.12,30.06,14,3,16,0.00
2018-7-12,79.5,67.2,54.9,55.6,52.7,49.6,86,61,40,30.10,30.05,13,3,16,0.00
2018-7-13,85.3,72.9,60.4,59.5,56.0,53.4,83,57,35,30.11,30.06,10,2,12,0.00
2018-7-14,86.0,73.5,61.0,62.1,57.4,54.3,83,57,37,30.10,30.00,10,2,14,0.00
2018-7-15,86.7,74.1,61.5,66.0,59.4,55.8,88,61,39,30.02,29.92,15,1,22,0.29
2018-7-16,85.1,72.2,59.4,64.8,59.6,54.9,91,64,36,30.00,29.89,11,2,14,0.00
2018-7-17,76.1,68.8,61.5,61.0,58.4,54.5,88,74,51,30.11,30.00,14,4,20,0.00
2018-7-18,84.0,70.2,56.5,59.9,55.7,52.3,90,61,36,30.10,30.00,10,1,10,0.00
2018-7-19,88.5,74.9,61.5,62.4,57.4,54.0,77,56,34,30.05,29.95,16,2,21,0.00
2018-7-20,77.4,70.2,63.0,63.1,60.4,57.2,90,71,55,30.04,29.92,16,4,20,0.00
2018-7-21,76.5,66.5,56.5,60.3,58.0,54.1,95,75,52,30.01,29.94,10,2,11,0.00
2018-7-22,79.2,69.3,59.4,60.3,57.3,54.0,87,64,44,30.06,30.00,12,2,15,0.00
2018-7-23,87.6,73.2,58.8,61.2,57.0,52.5,88,56,34,30.09,29.99,13,2,14,0.00
2018-7-24,90.1,77.9,65.7,60.4,57.2,52.0,71,50,29,30.00,29.91,8,2,10,0.00
2018-7-25,90.1,76.3,62.6,64.0,59.8,56.7,82,54,36,30.02,29.95,10,2,13,0.00
2018-7-26,96.4,80.7,64.9,65.1,59.9,55.0,81,51,26,29.98,29.87,7,1,11,0.00
2018-7-27,95.5,80.5,65.5,66.7,62.3,57.2,83,58,30,29.91,29.77,25,2,33,0.09
2018-7-28,77.5,69.7,61.9,64.8,60.6,54.7,90,72,48,29.99,29.84,14,4,19,0.00
2018-7-29,84.7,69.7,54.7,61.9,57.3,50.4,88,64,44,30.01,29.93,15,3,19,0.00
2018-7-30,84.0,72.2,60.4,63.0,60.6,56.3,89,66,45,30.07,30.00,11,2,14,0.00
2018-7-31,84.9,74.9,64.8,65.1,61.9,59.4,86,65,44,30.11,30.02,12,2,15,0.00
2018-8-1,86.5,77.8,69.1,63.5,61.5,59.0,74,59,43,30.16,30.10,12,3,14,0.00
2018-8-2,91.0,78.3,65.7,64.4,60.5,58.1,80,55,35,30.19,30.11,15,4,18,0.00
2018-8-3,95.0,82.9,70.9,64.6,60.8,57.0,63,48,34,30.16,30.05,12,4,15,0.00
2018-8-4,93.0,82.6,72.3,63.9,59.1,52.2,66,45,30,30.12,30.07,16,4,18,0.00
2018-8-5,91.8,80.1,68.7,66.2,61.4,54.0,78,55,34,30.14,30.03,15,5,16,0.00
2018-8-6,95.5,82.4,69.4,61.5,59.0,55.6,62,46,30,30.06,29.88,10,2,12,0.00
2018-8-7,98.2,83.3,68.4,69.3,60.7,52.5,70,49,22,29.91,29.76,19,4,23,0.00
2018-8-8,82.0,73.2,64.6,62.8,58.5,55.4,80,62,43,30.02,29.85,19,4,27,0.00
2018-8-9,70.3,63.0,55.6,63.9,58.3,52.7,93,77,63,30.19,29.80,23,5,28,0.16
2018-8-10,71.4,62.4,53.4,55.9,51.1,45.7,94,70,42,30.30,30.19,13,2,16,0.00
2018-8-11,78.4,64.4,50.5,55.0,50.7,47.5,91,63,37,30.31,30.16,7,1,8,0.00
2018-8-12,88.9,71.8,54.7,61.2,53.1,48.2,80,54,28,30.16,29.82,16,3,19,0.00
2018-8-13,74.1,69.4,64.9,63.9,60.8,57.6,88,76,60,29.96,29.81,17,5,23,0.08
2018-8-14,76.6,68.5,60.4,61.0,57.8,54.1,91,70,47,30.17,29.96,12,3,14,0.00
2018-8-15,82.8,69.4,55.9,59.2,56.5,52.7,89,63,42,30.20,30.09,10,2,14,0.00
2018-8-16,90.1,73.8,57.4,61.2,56.9,53.1,90,57,30,30.10,29.90,10,2,13,0.00
2018-8-17,75.4,68.7,62.4,61.3,57.2,53.6,83,69,52,30.19,29.94,13,4,19,0.00
2018-8-18,79.5,68.4,57.4,53.8,50.3,47.7,77,55,34,30.26,30.18,11,3,15,0.00
2018-8-19,83.8,70.6,57.4,58.1,54.1,48.7,82,56,37,30.24,30.15,10,1,11,0.00
2018-8-20,80.8,71.9,63.0,64.8,60.6,55.6,87,68,55,30.19,30.13,10,3,13,0.00
2018-8-21,84.4,72.9,61.5,64.4,60.4,58.1,91,67,44,30.17,30.04,12,3,15,0.00
2018-8-22,91.8,78.8,65.8,63.5,60.4,58.3,77,57,34,30.09,29.97,10,2,13,0.00
2018-8-23,85.8,74.4,63.1,64.4,61.2,57.6,87,63,45,30.02,29.93,15,3,19,0.00
2018-8-24,71.2,64.8,58.5,59.2,52.1,44.1,90,67,41,30.10,30.01,15,4,17,0.00
2018-8-25,64.6,56.9,49.3,54.1,49.7,46.0,92,75,55,30.09,30.01,11,2,18,0.17
2018-8-26,74.3,58.1,42.1,54.0,43.8,37.9,95,64,28,30.10,29.96,17,2,17,0.00
2018-8-27,75.4,65.3,55.2,67.1,57.6,41.5,94,80,54,30.09,29.97,12,2,15,0.00
2018-8-28,86.2,71.1,56.1,65.5,60.3,54.5,95,72,44,30.09,29.89,8,2,12,0.01
2018-8-29,73.6,65.9,58.3,64.8,60.6,55.6,92,82,65,30.21,29.89,25,5,26,0.01
2018-8-30,69.6,62.2,54.9,56.7,53.0,48.9,92,73,50,30.24,30.18,10,2,11,0.00
2018-8-31,71.2,64.3,57.6,55.6,51.9,46.8,83,67,46,30.22,30.14,13,2,16,0.00
2018-9-1,73.9,61.4,48.9,52.3,45.8,41.9,88,58,34,30.27,30.21,14,3,18,0.00
2018-9-2,76.5,64.2,52.0,49.5,45.9,43.2,73,53,34,30.24,30.07,16,4,19,0.00
2018-9-3,75.0,64.8,54.5,56.3,53.4,49.1,87,67,49,30.08,30.01,15,4,18,0.00
2018-9-4,78.6,69.7,60.8,57.7,54.9,52.7,79,63,44,30.04,29.99,11,3,17,0.00
2018-9-5,79.2,69.6,60.1,61.7,58.6,55.4,95,72,46,30.05,29.97,10,3,12,0.00
2018-9-6,76.5,69.2,61.9,62.6,59.0,54.1,94,77,52,30.02,29.93,13,4,17,0.00
2018-9-7,71.6,60.8,50.0,54.5,51.4,46.6,89,71,49,30.13,30.01,12,2,14,0.00
2018-9-8,79.9,63.8,47.8,54.0,50.0,46.2,95,66,34,30.17,30.09,7,1,10,0.00
2018-9-9,86.5,68.3,50.2,53.8,46.9,40.5,87,53,21,30.18,30.11,8,1,9,0.00
2018-9-10,82.9,68.7,54.5,58.1,51.8,41.9,79,55,39,30.29,30.17,10,2,11,0.00
2018-9-11,87.3,70.4,53.4,58.5,53.7,48.0,84,56,34,30.31,30.19,10,1,14,0.00
2018-9-12,88.7,73.1,57.6,58.1,55.5,50.2,83,53,33,30.22,30.08,12,1,12,0.00
2018-9-13,73.2,66.6,60.1,61.2,58.3,55.0,86,72,61,30.17,30.07,12,3,15,0.00
2018-9-14,74.1,65.3,56.5,56.7,52.0,46.4,91,67,41,30.23,30.15,8,2,10,0.00
2018-9-15,73.0,62.2,51.4,50.9,46.7,43.7,84,60,36,30.31,30.22,14,3,14,0.00
2018-9-16,80.8,64.8,48.7,50.9,46.6,42.4,84,56,26,30.24,30.10,9,1,10,0.00
2018-9-17,87.3,67.6,47.8,51.4,46.9,40.3,80,49,25,30.15,29.95,12,2,14,0.00
2018-9-18,81.1,69.9,58.8,60.6,55.4,48.2,74,60,45,30.09,29.96,12,2,15,0.00
2018-9-19,80.4,68.0,55.6,62.2,57.5,52.7,92,71,48,30.18,30.09,15,2,20,0.00
2018-9-20,82.2,68.2,54.3,59.7,55.4,51.8,92,69,40,30.18,29.96,13,2,13,0.00
2018-9-21,65.5,57.5,49.5,62.1,53.0,44.8,91,77,59,30.25,29.92,14,4,23,0.12
2018-9-22,69.6,56.3,43.3,51.4,45.5,41.5,95,68,37,30.29,30.12,15,3,19,0.00
2018-9-23,71.4,62.2,52.9,65.8,60.1,48.7,95,87,57,30.34,30.03,28,9,28,0.25
2018-9-24,60.6,52.8,45.1,48.7,44.0,40.3,93,74,50,30.55,30.34,18,7,24,0.00
2018-9-25,65.1,54.5,43.9,43.0,39.9,34.9,86,62,33,30.56,30.47,20,7,24,0.00
2018-9-26,75.6,57.9,40.3,46.6,41.7,36.1,87,59,31,30.51,30.44,11,1,13,0.00
2018-9-27,81.1,66.2,51.4,54.9,48.3,43.7,83,58,32,30.45,30.24,7,1,10,0.00
2018-9-28,75.9,62.3,48.7,54.3,49.9,44.8,91,66,42,30.26,30.16,17,4,23,0.00
2018-9-29,67.1,56.7,46.2,50.2,45.1,39.9,86,67,46,30.27,30.11,18,6,22,0.00
2018-9-30,68.4,55.8,43.3,50.7,42.1,37.0,85,61,40,30.11,30.03,14,2,14,0.00
2018-10-1,59.4,53.9,48.4,46.0,40.8,35.6,89,65,43,30.34,30.10,18,4,25,0.01
2018-10-2,58.5,50.0,41.5,48.9,40.9,35.4,79,67,55,30.36,30.30,13,3,14,0.00
2018-10-3,65.7,59.5,53.4,57.2,53.3,48.7,90,82,67,30.38,30.31,15,3,15,0.00
2018-10-4,71.1,60.0,48.9,52.3,48.1,44.2,93,71,43,30.36,30.17,13,3,16,0.00
2018-10-5,80.2,63.0,45.9,52.9,48.9,43.7,94,66,35,30.17,29.95,8,1,10,0.00
2018-10-6,80.8,65.1,49.3,54.9,50.0,45.7,91,65,35,29.95,29.73,19,4,23,0.00
2018-10-7,63.1,58.5,54.0,54.5,51.6,48.0,90,80,65,30.14,29.82,12,2,17,0.02
2018-10-8,67.8,60.1,52.3,55.2,52.4,49.8,92,83,63,30.19,30.12,16,3,16,0.00
2018-10-9,72.3,59.0,45.7,58.3,53.0,44.1,97,85,58,30.16,30.06,9,2,10,0.00
2018-10-10,75.6,62.4,49.6,56.5,53.2,47.7,95,76,47,30.07,29.82,14,2,19,0.01
2018-10-11,80.6,69.2,57.9,59.4,55.0,46.6,94,69,33,30.00,29.81,23,3,31,0.35
2018-10-12,81.1,69.2,57.4,64.8,59.7,56.5,97,81,50,30.15,29.99,9,1,12,0.02
2018-10-13,80.2,67.6,55.0,60.4,56.9,53.4,96,75,46,30.15,29.91,8,1,10,0.00
2018-10-14,79.7,69.2,58.8,56.3,53.3,51.1,82,61,43,29.93,29.71,21,4,25,0.01
2018-10-15,77.7,68.6,59.5,52.7,49.8,45.7,71,55,34,29.98,29.80,15,3,18,0.00
2018-10-16,77.7,65.8,53.8,54.3,51.6,49.5,88,64,40,30.11,29.98,9,1,12,0.00
2018-10-17,73.9,63.1,52.3,56.5,52.1,49.1,90,70,43,30.11,30.01,12,2,15,0.00
2018-10-18,73.0,63.0,52.9,55.0,52.4,50.4,93,73,46,30.12,30.04,16,6,19,0.00
2018-10-19,68.4,59.4,50.4,55.0,52.1,48.6,95,81,56,30.26,30.10,14,4,17,0.00
2018-10-20,67.3,58.0,48.7,54.5,50.5,47.1,95,82,59,30.39,30.25,14,4,19,0.00
2018-10-21,68.4,56.2,44.2,52.0,44.9,38.7,94,72,40,30.37,30.23,14,3,16,0.00
2018-10-22,64.9,55.6,46.2,51.4,45.4,40.6,82,72,52,30.50,30.25,20,7,25,0.00
2018-10-23,59.9,50.3,40.8,46.6,42.3,37.8,94,76,52,30.53,30.42,10,2,15,0.00
2018-10-24,56.5,46.9,37.6,52.2,45.1,35.4,94,88,80,30.43,30.33,9,1,13,0.00
2018-10-25,61.2,52.0,43.0,51.6,48.5,41.4,95,86,67,30.34,30.09,9,1,12,0.00
2018-10-26,48.9,44.4,39.9,46.9,44.0,38.3,97,95,86,30.09,29.88,7,1,8,0.02
2018-10-27,48.4,42.9,37.4,43.9,37.8,30.9,95,83,53,29.90,29.76,13,2,16,0.03
2018-10-28,43.5,39.8,36.1,39.0,36.5,33.1,94,88,81,29.77,29.60,23,8,29,0.17
2018-10-29,40.5,36.7,32.9,38.5,37.1,31.6,95,93,89,29.67,29.24,17,5,21,0.49
2018-10-30,48.0,40.2,32.4,42.8,35.5,31.3,97,93,78,29.79,29.27,13,3,15,0.39
2018-10-31,54.7,44.5,34.3,48.9,42.8,32.7,96,87,72,29.80,29.73,7,1,13,0.05
2018-11-1,53.8,49.5,45.3,49.5,45.2,42.6,95,84,76,30.02,29.74,13,4,20,0.11
2018-11-2,53.1,47.4,41.7,46.6,43.8,38.1,97,88,63,30.38,30.02,12,2,18,0.11
2018-11-3,53.4,45.2,36.9,45.9,39.7,34.2,95,86,74,30.38,30.12,9,2,10,0.00
2018-11-4,50.5,42.8,35.2,47.5,39.9,34.2,97,94,88,30.12,29.75,3,0,5,0.01
2018-11-5,64.6,55.5,46.4,52.2,48.7,44.2,94,79,62,29.76,29.63,7,1,12,0.00
2018-11-6,60.1,52.5,45.0,51.3,47.6,40.5,87,76,65,29.76,29.61,18,4,21,0.00
2018-11-7,53.1,49.5,46.0,50.4,45.7,41.7,94,88,79,30.05,29.70,13,3,17,0.35
2018-11-8,55.4,48.1,40.8,47.5,44.2,39.6,96,87,70,30.16,29.93,13,2,13,0.00
2018-11-9,59.2,50.7,42.1,52.2,46.4,41.0,97,90,76,29.95,29.76,10,2,12,0.01
2018-11-10,55.2,51.8,48.4,52.5,48.9,46.0,96,91,84,29.76,29.65,17,5,19,0.55
2018-11-11,51.1,50.3,49.6,48.0,46.8,45.5,92,88,84,29.78,29.74,11,6,15,0.01
2018-11-18,38.1,36.2,34.3,32.7,31.8,30.7,87,84,81,30.04,30.01,9,2,13,0.00
2018-11-19,40.1,35.3,30.7,33.4,29.5,25.0,88,79,66,30.01,29.64,19,6,27,0.00
2018-11-20,38.3,32.9,27.5,33.3,31.2,26.2,96,88,79,29.75,29.56,11,1,14,0.00
2018-11-21,40.8,32.9,25.0,37.4,30.9,23.7,97,94,87,29.99,29.75,7,0,9,0.01
2018-11-22,48.9,41.0,33.1,44.8,40.0,32.0,97,94,83,30.04,29.99,5,1,6,0.01
2018-11-23,45.7,42.2,38.7,45.1,41.2,37.9,98,98,96,30.03,29.80,7,1,11,0.20
2018-11-24,49.6,44.9,40.3,46.4,43.4,39.0,98,92,84,29.91,29.83,15,3,17,0.01
2018-11-25,45.1,42.6,40.1,43.5,41.6,39.0,97,94,90,29.83,29.60,6,1,11,0.14
2018-11-26,45.0,42.5,40.3,42.6,40.7,39.4,98,96,89,30.02,29.65,13,2,15,0.01
2018-11-27,43.2,41.8,40.5,41.2,39.9,39.0,95,93,89,30.15,30.02,11,2,11,0.11
2018-11-28,52.3,47.3,42.3,49.8,45.5,41.2,98,95,90,30.15,30.09,8,2,11,0.17
2018-11-29,58.5,51.9,45.3,49.6,45.2,42.1,96,83,63,30.08,29.91,10,2,12,0.00
2018-11-30,52.3,47.3,42.4,48.6,46.2,41.4,97,91,82,30.09,29.94,13,4,15,0.03
2018-12-1,50.2,45.3,40.5,47.7,44.1,39.9,98,95,85,30.09,29.86,17,5,17,0.22
2018-12-2,55.4,52.1,48.7,54.9,52.7,47.7,98,98,96,29.88,29.78,22,10,27,0.78
2018-12-3,57.7,54.0,50.2,55.4,53.0,48.6,98,95,86,30.02,29.81,27,9,34,0.53
2018-12-4,54.1,48.5,43.0,50.7,48.1,42.1,98,92,82,30.27,30.03,14,3,16,0.04
2018-12-5,51.4,46.4,41.4,50.4,45.4,40.8,98,96,90,30.27,30.07,15,1,16,0.09
2018-12-6,55.0,53.0,51.1,53.2,51.6,49.6,97,95,91,30.26,30.08,16,5,17,0.05
2018-12-7,53.4,47.8,42.3,49.6,46.3,39.4,95,89,79,30.25,29.85,29,10,39,0.09
2018-12-8,52.2,47.0,41.7,50.2,44.3,39.0,96,92,88,30.15,29.91,27,10,33,0.16
2018-12-9,52.3,49.4,46.6,49.1,44.5,42.3,92,85,75,30.29,29.91,36,11,36,0.13
2018-12-10,48.0,44.5,41.0,43.3,41.6,38.7,91,87,78,30.41,30.29,15,5,19,0.00
2018-12-11,40.8,36.2,31.5,39.0,35.1,30.4,97,96,91,30.36,30.22,6,1,6,0.01
2018-12-12,40.1,34.6,29.1,33.4,30.1,27.9,97,90,70,30.23,30.01,9,2,11,0.01
2018-12-13,36.1,30.2,24.3,30.6,27.5,23.0,95,89,78,30.01,29.82,12,4,14,0.00
2018-12-14,34.2,29.6,25.0,28.6,25.5,23.0,93,88,78,30.24,29.94,10,2,11,0.00
2018-12-15,35.2,29.0,22.8,34.5,26.7,21.4,97,91,81,30.22,29.89,7,1,10,0.02
2018-12-16,46.8,41.0,35.2,46.2,41.5,34.5,98,98,97,29.98,29.88,7,1,9,0.03
2018-12-17,47.8,41.8,35.8,45.0,40.9,35.1,98,95,89,30.35,29.98,13,2,18,0.01
2018-12-18,44.4,38.8,33.1,41.2,36.2,32.2,98,89,77,30.32,29.91,10,1,15,0.10
2018-12-19,49.6,46.0,42.4,45.3,43.4,41.2,96,91,81,30.01,29.93,18,6,24,0.16
2018-12-20,49.1,44.8,40.8,45.0,42.4,39.4,95,92,85,30.14,30.01,15,6,20,0.01
2018-12-21,54.5,50.2,45.9,54.0,50.0,43.9,98,95,90,30.12,29.98,26,12,30,0.80
2018-12-22,54.9,51.8,48.7,53.6,49.9,47.5,97,91,83,30.35,30.10,18,6,28,0.00
2018-12-23,55.2,52.1,48.9,52.9,50.4,48.0,98,94,89,30.36,30.25,19,7,24,0.02
2018-12-24,52.9,45.4,37.9,51.3,45.9,36.1,96,92,89,30.55,30.28,20,5,22,0.02
2018-12-25,42.6,36.9,31.3,37.8,33.8,30.0,96,91,80,30.57,30.50,8,1,10,0.01
2018-12-26,39.2,34.0,28.8,35.1,30.8,28.0,97,94,83,30.51,30.36,6,1,7,0.00
2018-12-27,36.9,32.7,28.4,36.3,32.2,27.3,98,97,95,30.35,30.30,5,0,5,0.01
2018-12-28,39.4,35.5,31.5,37.4,34.8,30.0,98,92,83,30.55,30.33,8,1,10,0.00
2018-12-29,36.3,32.9,29.5,35.1,31.4,27.7,96,93,90,30.64,30.53,5,1,7,0.00
2018-12-30,38.8,37.1,35.4,38.3,36.2,34.7,98,98,96,30.68,30.60,6,1,8,0.01
2018-12-31,43.2,40.1,36.9,42.6,39.7,36.3,98,98,98,30.65,30.58,4,0,5,0.02
2019-1-1,43.2,42.3,41.5,42.4,41.1,39.9,98,94,89,30.58,30.53,8,1,10,0.00
2019-1-2,43.5,39.3,35.1,42.6,34.8,28.0,97,83,59,30.69,30.57,18,5,23,0.01